Погода в Мокпхо

Южная Корея     34°48′15″N   126°23′08″E
темп.,
°C
ветер,
м/с
пор.,
м/с
влажн.,
%
обл.,
%
осадки,
мм/ч
давл.,
гПа
погр.,
м
27 ноября, сб
сб2700:00+9сз36643 0.0 1030660
03:00+8ссв58695 0.0 1031695
06:00+7ссв58754 0.0 1031457
09:00+7ссв58690 0.0 1033440
12:00+9ссв45430 0.0 1033680
15:00+11с34320 0.0 1033846
18:00+10с44420 0.0 1034399
21:00+8всв22460 0.0 1035198
28 ноября, вс
вс2800:00+8в22560 0.0 1035197
03:00+7всв33630 0.0 1035147
06:00+7всв22600 0.0 1034141
09:00+7в22547 0.0 1036166
12:00+10всв1251100 0.0 1034269
15:00+11сз2148100 0.0 1032326
18:00+11ссз1246100 0.0 1032296
21:00+10всв2250100 0.0 1032192
29 ноября, пн
пн2900:00+9всв2252100 0.0 1032136
03:00+9вюв115599 0.0 1031125
06:00+9всв2257100 0.0 1030123
09:00+9всв225195 0.0 1030137
12:00+12св1141100 0.0 1028249
15:00+12зюз1145100 0.0 1026209
18:00+12юв236192 0.0 1025108
21:00+12юв4572100 0.0 1024174
30 ноября, вт
вт3000:00+12юв51377100 0.0 1021478
03:00+14ююв71387100 0.5 1016420
06:00+14ююз121896100 13.0 1013892
09:00+13зюз91383100 18.6 10141119
12:00+12з121574100 0.7 10141461
15:00+10зсз131671100 1.1 10141844
18:00+9сз141766100 0.9 10161857
21:00+8сз151766100 1.7 10181896
1 декабря, ср
ср100:00+7сз16186474 0.2 10191964
03:00+6сз151862100 0.9 10202047
06:00+6сз151762100 0.7 10202073
09:00+7сз131655100 0.9 10222275
12:00+7сз131661100 0.1 10222146
15:00+8сз121558100 0.1 10222123
18:00+8ссз111459100 0.1 10231731
21:00+8ссз9125998 0.1 10231747